User: anonymous   Login
Location: Catacaguana
(10.4120°N, 66.7591°W)
Time: 05:51:39
(UTC+00:00)
Language:

H-2A R/B - Orbit

View from above orbital plane
View from above orbital plane
View from above satellite
View from above satellite

Ground track
Ground track

The orbit data is extracted from the following two-line orbital elements,

1 28932U 06002B   22222.65771168  .00001221  00000-0  11394-3 0  9990
2 28932  98.2880 268.0986 0084913 274.1858  84.9659 14.93701603898134
Epoch (UTC): 10 August 2022 15:47:06
Eccentricity: 0.0084913
inclination: 98.2880°
perigee height: 527 km
apogee height: 645 km
right ascension of ascending node: 268.0986°
argument of perigee: 274.1858°
revolutions per day: 14.93701603
mean anomaly at epoch: 84.9659°
orbit number at epoch: 89813

The dashed part of the orbit path shows where the satellite is in the earth's shadow,  

DLR